Weather History for Miles City, MT

Change the Weather History Date:

Sunday, September 2, 2012

  Actual Average Record
Temperature  
Mean Temperature 73 °F 67 °F  
Max Temperature 87 °F 81 °F 100 °F (1940)
Min Temperature 58 °F 52 °F 32 °F (1974)
Degree Days  
Heating Degree Days 0 3  
Month to date heating degree days 0 5  
Since 1 July heating degree days 13 39  
Cooling Degree Days 8 4  
Month to date cooling degree days 21 9  
Year to date cooling degree days 1073 681  
Growing Degree Days 22 (Base 50)    
Moisture  
Dew Point 38 °F    
Average Humidity 44    
Maximum Humidity 77    
Minimum Humidity 11    
Precipitation  
Precipitation 0.01 in 0.03 in 0.90 in (1973)
Month to date precipitation 0.01 0.06  
Year to date precipitation 4.62 9.82  
Sea Level Pressure  
Sea Level Pressure 29.87 in    
Wind  
Wind Speed 8 mph (West)    
Max Wind Speed 30 mph    
Max Gust Speed 44 mph    
Visibility 10 miles    
Events Rain    
T = Trace of Precipitation, MM = Missing Value Source: NWS Daily Summary

Daily Weather History Graph

Daily Weather History Graph

Search for Another Location

Airport:

Trip Planner

Search our weather history database for the weather conditions in past years. The results will help you decide how hot, cold, wet, or windy it might be!

Date:

Astronomy

Sep. 02, 2012 Rise Set
Actual Time 6:25 AM MDT 7:39 PM MDT
Civil Twilight 5:54 AM MDT 8:10 PM MDT
Nautical Twilight 5:17 AM MDT 8:47 PM MDT
Astronomical Twilight 4:37 AM MDT 9:27 PM MDT
Moon 8:14 PM MDT (9/2) 8:48 AM MDT (9/2)
Length of Visible Light 14h 15m
Length of Day
13h 13m
Waning Gibbous, 95% of the Moon is Illuminated
Sep 2
Waning Gibbous
Sep 8
Last Quarter
Sep 15
New
Sep 22
First Quarter
Sep 29
Full

Hourly Weather History & Observations

Time (MDT) Temp. Dew Point Humidity Pressure Visibility Wind Dir Wind Speed Gust Speed Precip Events Conditions
12:53 AM 69.1 °F 50.0 °F 51% 29.83 in 10.0 mi SW 9.2 mph - 0.00 in Rain Light Rain
1:53 AM 68.0 °F 51.8 °F 56% 29.87 in 10.0 mi West 8.1 mph - N/A   Partly Cloudy
2:53 AM 69.1 °F 50.0 °F 51% 29.83 in 10.0 mi WSW 10.4 mph - N/A   Overcast
3:53 AM 69.1 °F 48.0 °F 47% 29.84 in 10.0 mi WNW 17.3 mph 24.2 mph 0.00 in   Overcast
4:53 AM 64.0 °F 48.9 °F 58% 29.88 in 10.0 mi WNW 6.9 mph - 0.00 in Rain Light Rain
5:53 AM 61.0 °F 52.0 °F 72% 29.88 in 10.0 mi West 10.4 mph - 0.01 in   Clear
6:53 AM 57.9 °F 50.0 °F 75% 29.91 in 10.0 mi WNW 3.5 mph - N/A   Clear
7:53 AM 60.1 °F 48.9 °F 67% 29.93 in 10.0 mi West 6.9 mph - N/A   Clear
8:53 AM 66.9 °F 42.1 °F 40% 29.93 in 10.0 mi WNW 9.2 mph - N/A   Clear
9:53 AM 73.0 °F 37.0 °F 27% 29.93 in 10.0 mi WNW 6.9 mph - N/A   Clear
10:53 AM 75.9 °F 28.0 °F 17% 29.93 in 10.0 mi SW 4.6 mph - N/A   Clear
11:53 AM 79.0 °F 25.0 °F 14% 29.92 in 10.0 mi West 5.8 mph - N/A   Clear
12:53 PM 82.0 °F 23.0 °F 11% 29.89 in 10.0 mi West 10.4 mph 21.9 mph N/A   Clear
1:53 PM 82.9 °F 25.0 °F 12% 29.88 in 10.0 mi WSW 12.7 mph - N/A   Clear
2:53 PM 84.9 °F 30.9 °F 14% 29.86 in 10.0 mi WSW 19.6 mph 26.5 mph N/A   Clear
3:53 PM 86.0 °F 33.1 °F 15% 29.85 in 10.0 mi West 18.4 mph 24.2 mph N/A   Clear
4:53 PM 86.0 °F 35.1 °F 16% 29.84 in 10.0 mi West 10.4 mph - N/A   Clear
5:53 PM 84.9 °F 34.0 °F 16% 29.84 in 10.0 mi WSW 13.8 mph 19.6 mph N/A   Clear
6:53 PM 82.9 °F 34.0 °F 17% 29.83 in 10.0 mi SW 4.6 mph - N/A   Clear
7:53 PM 79.0 °F 34.0 °F 20% 29.83 in 10.0 mi Calm Calm - N/A   Clear
8:53 PM 73.9 °F 35.1 °F 24% 29.85 in 10.0 mi Calm Calm - N/A   Clear
9:53 PM 69.1 °F 35.1 °F 29% 29.84 in 10.0 mi SSE 5.8 mph - N/A   Clear
10:53 PM 66.0 °F 33.1 °F 29% 29.84 in 10.0 mi NNE 3.5 mph - N/A   Clear
11:53 PM 64.0 °F 27.0 °F 25% 29.84 in 10.0 mi NNE 4.6 mph - N/A   Clear